Track YAOGAN-30 D now! 10-day predictions YAOGAN-30 D is classified as:
1 43028U 17075A 24253.19551323 .00010266 00000-0 89118-3 0 9997 2 43028 34.9939 232.4196 0001123 49.6643 310.4161 14.96338212370366